Shelbyville, IN

7:35 PM EST on November 20, 2019 (GMT -0500)
Shelbyville Municipal

Weather History for KGEZ - September, 2019

Change the Weather History Date:

Monday, September 23, 2019

  Actual Average Record
Temperature  
Mean Temperature 67 °F 63 °F  
Max Temperature 80 °F 75 °F 95 °F (2010)
Min Temperature 54 °F 50 °F 36 °F (2012)
Degree Days  
Heating Degree Days 0 4  
Month to date heating degree days 0 40  
Since 1 July heating degree days 0 46  
Cooling Degree Days 2 2  
Month to date cooling degree days 183 83  
Year to date cooling degree days 1244 889  
Growing Degree Days 18 (Base 50)    
Moisture  
Dew Point 63 °F    
Average Humidity 66    
Maximum Humidity 90    
Minimum Humidity 41    
Precipitation  
Precipitation 0.10 in 0.10 in 0.81 in (2001)
Month to date precipitation 0.75 2.43  
Year to date precipitation 32.21 32.71  
Sea Level Pressure  
Sea Level Pressure 29.96 in    
Wind  
Wind Speed 8 mph (WSW)    
Max Wind Speed 18 mph    
Max Gust Speed 25 mph    
Visibility 9 miles    
Events Rain    
T = Trace of Precipitation, MM = Missing Value Source: NWS Daily Summary

Daily Weather History Graph

Daily Weather History Graph

Search for Another Location

Airport or City:

Astronomy

Sep. 23, 2019 Rise Set
Actual Time 7:31 AM EDT 7:38 PM EDT
Civil Twilight 7:04 AM EDT 8:05 PM EDT
Nautical Twilight 6:33 AM EDT 8:37 PM EDT
Astronomical Twilight 6:01 AM EDT 9:09 PM EDT
Moon 1:15 AM EDT (9/23) 4:30 PM EDT (9/23)
Length of Visible Light 13h 01m
Length of Day
12h 07m
Waning Crescent, 33% of the Moon is Illuminated
Sep 23
Waning Crescent
Sep 28
New
Oct 5
First Quarter
Oct 13
Full
Oct 21
Last Quarter

Hourly Weather History & Observations

Time (EDT) Temp. Heat Index Dew Point Humidity Pressure Visibility Wind Dir Wind Speed Gust Speed Precip Events Conditions
12:08 AM 69.1 °F - 64.9 °F 87% 29.99 in 3.0 mi Variable 6.9 mph 21.9 mph 0.03 in Rain Rain
12:40 AM 70.0 °F - 66.0 °F 87% 29.98 in 2.5 mi WSW 8.1 mph 20.7 mph 0.12 in Rain Rain
12:53 AM 70.0 °F - 66.0 °F 87% 29.96 in 8.0 mi SW 5.8 mph - 0.13 in Rain Light Rain
1:33 AM 70.0 °F - 66.9 °F 90% 29.97 in 7.0 mi SSW 9.2 mph - 0.03 in Rain Rain
1:46 AM 70.0 °F - 66.9 °F 90% 29.97 in 6.0 mi SSW 6.9 mph - 0.05 in Rain Light Rain
1:53 AM 70.0 °F - 66.9 °F 90% 29.95 in 9.0 mi SW 5.8 mph - 0.05 in Rain Light Rain
2:08 AM 70.0 °F - 66.9 °F 90% 29.95 in 10.0 mi South 6.9 mph - 0.00 in   Overcast
2:53 AM 70.0 °F - 66.9 °F 90% 29.92 in 10.0 mi South 10.4 mph - 0.00 in   Scattered Clouds
3:08 AM 70.0 °F - 66.9 °F 90% 29.94 in 10.0 mi South 9.2 mph - N/A   Overcast
3:51 AM 69.8 °F - 66.2 °F 88% 29.93 in 10.0 mi SSW 11.5 mph 19.6 mph N/A   Overcast
3:53 AM 70.0 °F - 66.9 °F 90% 29.91 in 10.0 mi SSW 12.7 mph 19.6 mph N/A   Overcast
4:15 AM 70.0 °F - 66.9 °F 90% 29.93 in 10.0 mi South 11.5 mph - N/A   Overcast
4:24 AM 70.0 °F - 66.9 °F 90% 29.93 in 7.0 mi SSW 8.1 mph - 0.01 in Rain Light Rain
4:53 AM 71.1 °F - 66.9 °F 87% 29.91 in 10.0 mi SSW 10.4 mph - 0.03 in   Overcast
5:09 AM 71.1 °F - 66.9 °F 87% 29.93 in 10.0 mi SW 10.4 mph - N/A   Overcast
5:16 AM 71.1 °F - 66.9 °F 87% 29.93 in 10.0 mi SSW 10.4 mph - N/A   Overcast
5:28 AM 71.1 °F - 66.9 °F 87% 29.93 in 10.0 mi SSW 10.4 mph - N/A   Overcast
5:53 AM 71.1 °F - 66.9 °F 87% 29.90 in 9.0 mi SSW 12.7 mph 19.6 mph 0.00 in Rain Light Rain
6:09 AM 71.1 °F - 66.9 °F 87% 29.93 in 10.0 mi SSW 9.2 mph - 0.00 in Rain Light Rain
6:53 AM 71.1 °F - 68.0 °F 90% 29.92 in 7.0 mi SW 9.2 mph - 0.01 in Rain Light Rain
7:28 AM 71.1 °F - 68.0 °F 90% 29.94 in 10.0 mi SW 8.1 mph - 0.00 in   Overcast
7:53 AM 71.1 °F - 68.0 °F 90% 29.93 in 8.0 mi SW 8.1 mph - 0.01 in Rain Light Rain
8:26 AM 71.1 °F - 68.0 °F 90% 29.95 in 10.0 mi SW 9.2 mph - 0.00 in   Overcast
8:53 AM 72.0 °F - 68.0 °F 87% 29.94 in 10.0 mi West 8.1 mph - 0.00 in   Overcast
9:03 AM 72.0 °F - 68.0 °F 87% 29.96 in 10.0 mi West 5.8 mph - N/A   Overcast
9:46 AM 72.0 °F - 66.9 °F 84% 29.98 in 10.0 mi NW 9.2 mph - N/A   Overcast
9:53 AM 72.0 °F - 66.0 °F 81% 29.96 in 10.0 mi NW 8.1 mph - N/A   Mostly Cloudy
10:05 AM 73.0 °F - 66.0 °F 79% 29.98 in 10.0 mi WNW 8.1 mph - N/A   Scattered Clouds
10:36 AM 72.0 °F - 64.9 °F 78% 29.99 in 10.0 mi WNW 9.2 mph - N/A   Overcast
10:53 AM 72.0 °F - 64.0 °F 76% 29.98 in 10.0 mi WNW 9.2 mph - N/A   Overcast
11:31 AM 73.9 °F - 63.0 °F 68% 30.00 in 10.0 mi WNW 11.5 mph - N/A   Mostly Cloudy
11:53 AM 75.0 °F - 62.1 °F 64% 29.98 in 10.0 mi WNW 11.5 mph 18.4 mph N/A   Mostly Cloudy
12:53 PM 78.1 °F - 60.1 °F 54% 29.99 in 10.0 mi WNW 10.4 mph - N/A   Scattered Clouds
1:53 PM 79.0 °F - 60.1 °F 52% 29.99 in 10.0 mi NW 11.5 mph 18.4 mph N/A   Partly Cloudy
2:53 PM 80.1 °F 80.6 °F 57.9 °F 47% 29.98 in 10.0 mi NW 13.8 mph 18.4 mph N/A   Scattered Clouds
3:53 PM 79.0 °F - 54.0 °F 42% 29.98 in 10.0 mi WNW 13.8 mph - N/A   Clear
4:53 PM 77.0 °F - 55.0 °F 47% 29.99 in 10.0 mi NW 11.5 mph - N/A   Clear
5:53 PM 75.9 °F - 50.0 °F 40% 29.99 in 10.0 mi NW 10.4 mph 17.3 mph N/A   Clear
6:53 PM 73.0 °F - 50.0 °F 44% 30.01 in 10.0 mi NW 6.9 mph - N/A   Clear
7:53 PM 64.9 °F - 52.0 °F 63% 30.01 in 10.0 mi NW 5.8 mph - N/A   Clear
8:53 PM 62.1 °F - 53.1 °F 72% 30.01 in 10.0 mi NW 3.5 mph - N/A   Clear
9:53 PM 59.0 °F - 53.1 °F 81% 30.03 in 10.0 mi NNW 3.5 mph - N/A   Clear
10:53 PM 57.0 °F - 52.0 °F 83% 30.04 in 10.0 mi Calm Calm - N/A   Clear
11:53 PM 55.9 °F - 52.0 °F 87% 30.04 in 10.0 mi Calm Calm - N/A   Clear